Home   Weather   Petersburg   Past weeks

Flag for USA Past Weather in Petersburg, Indiana, USA — Yesterday and Last 2 Weeks

Now
39 °F

Overcast.


Feels Like: 35 °F
Forecast: 37 / 45 °F
Wind: 6 mph from Southwest

Location: Huntingburg Airport

Current Time: Jan 18, 2017 at 1:18:11 pm

Latest Report: Jan 18, 2017 at 12:35 pm


Visibility: 10 mi

Pressure: 30.42 "Hg

Humidity: 87%

Dew Point: 36 °F

Location of PetersburgLocation

Past Weather in Petersburg — Graph

°F

Petersburg Temperature Yesterday

Maximum temperature yesterday: 61 °F (at 4:15 am)
Minimum temperature yesterday: 42 °F (at 10:56 pm)
Average temperature yesterday: 51 °F

High & Low Weather Summary for the Past Weeks

 TemperatureHumidityPressure
High68 °F (Jan 12, 1:15 pm)100% (Jan 3, 2:15 pm)30.86 "Hg (Jan 3, 2:15 pm)
Low3 °F (Jan 7, 7:56 am)41% (Jan 9, 10:56 pm)29.73 "Hg (Jan 3, 1:39 pm)
Average34 °F81%30.37 "Hg
* Reported Jan 3 11:35 am — Jan 18 11:56 am, Petersburg, Weather by CustomWeather, © 2017

Note: Actual official high and low records may vary slightly from our data, if they occured in-between our weather recording intervals... More about our weather records

Advertising

Petersburg Weather History for the Previous 24 Hours

Scroll right to see more
 ConditionsComfort  
Time TempWeatherWind HumidityBarometerVisibility
11:56 am
Wed, Jan 18
40 °FOvercast.6 mph86%30.30 "Hg10 mi
11:35 am39 °FOvercast.6 mph87%30.42 "Hg10 mi
11:15 am39 °FOvercast.6 mph87%30.42 "Hg10 mi
10:56 am40 °FOvercast.6 mph86%30.32 "Hg10 mi
10:35 am39 °FOvercast.5 mph87%30.42 "Hg10 mi
10:15 am39 °FOvercast.7 mph87%30.42 "Hg10 mi
9:56 am40 °FOvercast.6 mph86%30.30 "Hg10 mi
9:35 am39 °FOvercast.6 mph87%30.42 "Hg10 mi
9:15 am39 °FOvercast.6 mph87%30.42 "Hg10 mi
8:56 am39 °FOvercast.8 mph89%30.30 "Hg10 mi
8:35 am39 °FOvercast.6 mph87%30.42 "Hg10 mi
8:15 am39 °FOvercast.6 mph87%30.42 "Hg10 mi
7:56 am39 °FOvercast.6 mph89%30.27 "Hg10 mi
7:35 am39 °FLow clouds.6 mph93%30.42 "Hg10 mi
7:19 am39 °FLow clouds.9 mph87%30.22 "Hg10 mi
6:56 am39 °FOvercast.7 mph93%30.25 "Hg10 mi
6:35 am39 °FOvercast.7 mph93%30.42 "Hg10 mi
6:15 am39 °FOvercast.8 mph87%30.42 "Hg10 mi
5:56 am40 °FOvercast.8 mph86%30.24 "Hg10 mi
5:35 am39 °FOvercast.9 mph87%30.42 "Hg10 mi
5:15 am39 °FOvercast.14 mph87%30.42 "Hg10 mi
4:56 am40 °FOvercast.8 mph89%30.22 "Hg10 mi
4:35 am39 °FOvercast.7 mph93%30.42 "Hg10 mi
4:15 am39 °FOvercast.7 mph93%30.42 "Hg10 mi
3:56 am41 °FOvercast.12 mph86%30.23 "Hg10 mi
3:35 am41 °FOvercast.8 mph87%30.42 "Hg10 mi
3:15 am41 °FOvercast.9 mph87%30.42 "Hg10 mi
2:56 am41 °FOvercast.10 mph86%30.22 "Hg10 mi
2:36 am41 °FOvercast.13 mph87%30.16 "Hg10 mi
2:15 am41 °FOvercast.10 mph87%30.42 "Hg10 mi
1:56 am41 °FOvercast.10 mph89%30.20 "Hg10 mi
1:38 am41 °FMostly cloudy.10 mph93%30.14 "Hg10 mi
1:15 am43 °FOvercast.12 mph87%30.42 "Hg10 mi
12:56 am41 °FOvercast.9 mph93%30.19 "Hg10 mi
12:35 am43 °FMostly cloudy.12 mph87%30.42 "Hg8 mi
12:15 am43 °FOvercast.14 mph87%30.42 "Hg10 mi
11:55 pm
Tue, Jan 17
43 °FOvercast.12 mph87%30.42 "Hg8 mi
11:35 pm43 °FOvercast.13 mph87%30.42 "Hg10 mi
11:17 pm43 °FMostly cloudy.13 mph87%30.13 "Hg10 mi
10:56 pm42 °FOvercast.10 mph92%30.18 "Hg10 mi
10:35 pm43 °FOvercast.10 mph87%30.42 "Hg10 mi
10:15 pm43 °FOvercast.10 mph87%30.42 "Hg10 mi
10:05 pm43 °FLow clouds.9 mph87%30.13 "Hg10 mi
9:55 pm43 °FMostly cloudy.12 mph93%30.42 "Hg10 mi
9:35 pm43 °FOvercast.12 mph93%30.42 "Hg5 mi
9:15 pm43 °FMostly cloudy.12 mph93%30.42 "Hg6 mi
8:56 pm43 °FOvercast.13 mph89%30.17 "Hg10 mi
8:35 pm43 °FOvercast.14 mph87%30.42 "Hg10 mi
8:23 pm43 °FOvercast.15 mph87%30.12 "Hg10 mi
7:56 pm43 °FOvercast.15 mph89%30.16 "Hg10 mi
7:35 pm45 °FOvercast.10 mph81%30.42 "Hg10 mi
7:15 pm45 °FOvercast.15 mph81%30.42 "Hg10 mi
6:56 pm45 °FOvercast.9 mph82%30.15 "Hg10 mi
6:35 pm45 °FMostly cloudy.12 mph81%30.42 "Hg10 mi
6:15 pm45 °FOvercast.10 mph81%30.42 "Hg10 mi
5:56 pm45 °FOvercast.10 mph82%30.13 "Hg10 mi
5:35 pm46 °FOvercast.13 mph76%30.42 "Hg10 mi
4:56 pm46 °FOvercast.13 mph83%30.09 "Hg10 mi
4:35 pm46 °FOvercast.14 mph82%30.42 "Hg10 mi
3:56 pm47 °FOvercast.12 mph80%30.07 "Hg10 mi
3:35 pm46 °FOvercast.14 mph82%30.42 "Hg10 mi
3:15 pm48 °FOvercast.14 mph76%30.42 "Hg10 mi
2:56 pm48 °FOvercast.13 mph80%30.06 "Hg10 mi
2:35 pm48 °FOvercast.13 mph82%30.42 "Hg10 mi
2:15 pm48 °FOvercast.12 mph82%30.42 "Hg10 mi
1:56 pm49 °FOvercast.13 mph80%30.04 "Hg10 mi
1:35 pm50 °FOvercast.12 mph82%30.42 "Hg10 mi
1:15 pm50 °FOvercast.14 mph82%30.42 "Hg10 mi
Weather by CustomWeather, © 2017

See weather overviewHow to use our weather pages